Flag for Saudi Arabia

Past Weather in Jeddah, Saudi Arabia — Yesterday and Last 2 Weeks

Now
102 °F

Sunny.


Feels Like: 107 °F
Forecast: 99 / 85 °F
Wind: 17 mph from North

Location: Jeddah King Abdul Aziz International Airport

Current Time: Jul 10, 2020 at 1:52:35 pm

Latest Report: Jul 10, 2020 at 1:00 pm


Visibility: 10 mi

Pressure: 29.68 "Hg

Humidity: 31%

Dew Point: 66 °F

Location of JeddahLocation

Past Weather in Jeddah — Graph

°F

Jeddah Temperature Yesterday

Maximum temperature yesterday: 104 °F (at 3:00 pm)
Minimum temperature yesterday: 82 °F (at 5:00 am)
Average temperature yesterday: 93 °F

High & Low Weather Summary for the Past Weeks

 TemperatureHumidityPressure
High106 °F (Jul 8, 1:00 pm)79% (Jun 26, 5:00 am)29.71 "Hg (Jun 26, 5:00 am)
Low81 °F (Jun 26, 5:00 am)11% (Jul 8, 2:00 pm)29.50 "Hg (Jul 2, 2:00 am)
Average92 °F42%29.60 "Hg
* Reported Jun 25 12:00 pm — Jul 10 12:00 pm, Jeddah. Weather by CustomWeather, © 2020

Note: Actual official high and low records may vary slightly from our data, if they occured in-between our weather recording intervals... More about our weather records

Jeddah Weather History for the Previous 24 Hours

Scroll right to see more
 ConditionsComfort  
Time TempWeatherWind HumidityBarometerVisibility
12:00 pm
Fri, Jul 10
100 °FSunny.20 mph35%29.68 "Hg10 mi
11:00 am99 °FSunny.18 mph39%29.68 "Hg10 mi
10:00 am95 °FSunny.14 mph44%29.71 "Hg10 mi
9:00 am91 °FSunny.10 mph52%29.71 "Hg10 mi
8:00 am88 °FSunny.8 mph66%29.68 "Hg10 mi
7:00 am84 °FSunny.No wind74%29.68 "Hg10 mi
6:00 am84 °FSunny.7 mph70%29.65 "Hg10 mi
5:00 am84 °FClear.5 mph66%29.65 "Hg10 mi
4:00 am84 °FClear.5 mph55%29.65 "Hg10 mi
3:00 am84 °FClear.3 mph48%29.62 "Hg10 mi
2:00 am88 °FClear.7 mph40%29.62 "Hg10 mi
1:00 am86 °FClear.5 mph40%29.62 "Hg10 mi
12:00 am88 °FClear.5 mph40%29.65 "Hg10 mi
11:00 pm
Thu, Jul 9
90 °FClear.3 mph41%29.65 "Hg10 mi
10:00 pm91 °FClear.7 mph41%29.65 "Hg10 mi
9:00 pm93 °FClear.7 mph39%29.65 "Hg10 mi
8:00 pm97 °FClear.9 mph32%29.65 "Hg10 mi
7:00 pm99 °FSunny.14 mph29%29.65 "Hg10 mi
6:00 pm100 °FSunny.15 mph25%29.62 "Hg10 mi
5:00 pm102 °FSunny.14 mph21%29.62 "Hg10 mi
4:00 pm104 °FSunny.18 mph19%29.65 "Hg10 mi
3:00 pm104 °FSunny.17 mph21%29.65 "Hg10 mi
2:00 pm102 °FSunny.21 mph24%29.65 "Hg10 mi
1:00 pm102 °FSunny.18 mph27%29.68 "Hg10 mi
Weather by CustomWeather, © 2020

See weather overview